This is the latest recevied weather packets stored in our database for station/object KJ4UBX-11. If no packets are shown the sender has not sent any weather packets the latest 10 day(s).
| Time | Temp. | Humidity | Pressure | Rain* | Wind** | Luminosity | Snow |
|---|---|---|---|---|---|---|---|
| 1777459553 | 9.44° C | 97% | 1017.3 hPa | - | - | - | - |
| 1777458969 | 9.44° C | 100% | 1017.2 hPa | - | - | - | - |
| 1777458386 | 9.44° C | 100% | 1017 hPa | - | - | - | - |
| 1777457803 | 8.89° C | 100% | 1016.8 hPa | - | - | - | - |
| 1777457219 | 8.89° C | 100% | 1016.9 hPa | - | - | - | - |
| 1777456637 | 9.44° C | 100% | 1016.7 hPa | - | - | - | - |
| 1777456054 | 8.89° C | 100% | 1017 hPa | - | - | - | - |
| 1777455471 | 8.89° C | 100% | 1016.8 hPa | - | - | - | - |
| 1777454888 | 9.44° C | 100% | 1017 hPa | - | - | - | - |
| 1777454305 | 9.44° C | 97% | 1017.2 hPa | - | - | - | - |
| 1777453722 | 9.44° C | 95% | 1017.3 hPa | - | - | - | - |
| 1777453139 | 9.44° C | 78% | 1017.4 hPa | - | - | - | - |
| 1777452557 | 9.44° C | 84% | 1017.6 hPa | - | - | - | - |
| 1777451974 | 9.44° C | 80% | 1017.7 hPa | - | - | - | - |
| 1777451392 | 9.44° C | 78% | 1018 hPa | - | - | - | - |
| 1777450809 | 9.44° C | 74% | 1018 hPa | - | - | - | - |
| 1777450226 | 9.44° C | 63% | 1018.2 hPa | - | - | - | - |
| 1777449643 | 9.44° C | 58% | 1018.4 hPa | - | - | - | - |
| 1777449060 | 9.44° C | 57% | 1018.3 hPa | - | - | - | - |
| 1777448477 | 9.44° C | 57% | 1018.4 hPa | - | - | - | - |
| 1777447894 | 8.89° C | 55% | 1018.3 hPa | - | - | - | - |
| 1777447309 | 9.44° C | 57% | 1018.4 hPa | - | - | - | - |
| 1777446728 | 8.89° C | 57% | 1018.4 hPa | - | - | - | - |
| 1777446146 | 9.44° C | 55% | 1018.3 hPa | - | - | - | - |
| 1777445562 | 8.89° C | 59% | 1018.4 hPa | - | - | - | - |
* Rain since midnight (hover to see other rain measurements)
** Current wind speed in m/s (hover to see current wind gust speed)